Flag for U.S.A. Weather past 2 weeks in Redmond, Washington, U.S.A.

Now
67 °F

Broken clouds.


Feels Like: 67 °F
Forecast: 55 / 69 °F
Wind: 7 mph from North

Location: Seattle Boeing Field

Current Time: Sep 2, 2014 at 7:53:30 PM

Latest Report: Sep 2, 2014 at 6:53 PM


Visibility: 10 mi

Pressure: 29.80 "Hg

Humidity: 63%

Dew point: 54 °F

Location of RedmondLocation

Historic Weather in Redmond — Graph

°F

Redmond temperature yesterday

Maximum temperature yesterday: 76 °F (at 4:53 PM)
Minimum temperature yesterday: 58 °F (at 5:53 AM)
Average temperature yesterday: 67 °F

Past Weeks' High & Low Weather Summary

 TemperatureHumidityPressure
High88 °F (Aug 26, 3:53 PM)90% (Aug 31, 7:53 AM)30.15 "Hg (Aug 31, 7:53 AM)
Low57 °F (Aug 21, 5:53 AM)23% (Aug 26, 5:53 PM)29.77 "Hg (Aug 19, 5:53 PM)
Average69 °F62%29.98 "Hg
* Reported Aug 18 6:53 PM — Sep 2 6:53 PM, Redmond, Weather by CustomWeather, © 2014

Note: Actual official high and low records may vary slightly from our data, if they occured in-between our weather recording intervals... More about our weather records

Advertising

Redmond weather history for previous 24 hours

 ConditionsComfort  
Time TempWeatherWind HumidityBarometerVisibility
6:53 PM
Sep 2
67 °FBroken clouds.7 mph63%29.80 "Hg10 mi
5:53 PM67 °FBroken clouds.15 mph66%29.78 "Hg10 mi
4:53 PM69 °FPassing clouds.15 mph59%29.80 "Hg10 mi
3:53 PM68 °FMostly cloudy.16 mph57%29.83 "Hg10 mi
2:53 PM70 °FPartly sunny.14 mph53%29.83 "Hg10 mi
2:00 PM70 °FLight rain. More clouds than sun.10 mph57%29.87 "Hg10 mi
12:53 PM68 °FBroken clouds.9 mph63%29.89 "Hg10 mi
11:53 AM69 °FMostly cloudy.10 mph63%29.89 "Hg10 mi
10:53 AM67 °FMostly cloudy.3 mph66%29.90 "Hg10 mi
9:53 AM64 °FOvercast.3 mph68%29.92 "Hg10 mi
8:53 AM64 °FMore clouds than sun.3 mph68%29.93 "Hg10 mi
7:53 AM64 °FOvercast.3 mph68%29.94 "Hg10 mi
6:53 AM64 °FMostly cloudy.3 mph70%29.94 "Hg10 mi
5:53 AM64 °FMostly cloudy.3 mph68%29.94 "Hg10 mi
4:53 AM64 °FOvercast.3 mph68%29.95 "Hg10 mi
3:53 AM65 °FOvercast.No wind68%29.95 "Hg10 mi
2:53 AM64 °FPassing clouds.No wind73%29.97 "Hg10 mi
1:53 AM65 °FPartly cloudy.3 mph70%29.97 "Hg10 mi
12:53 AM64 °FPassing clouds.No wind73%29.98 "Hg10 mi
11:53 PM
Sep 1
67 °FPassing clouds.No wind63%29.98 "Hg10 mi
10:53 PM67 °FOvercast.3 mph61%29.98 "Hg10 mi
9:53 PM68 °FLight rain. Overcast.No wind61%29.99 "Hg10 mi
8:53 PM68 °FPassing clouds.9 mph57%29.98 "Hg10 mi
7:53 PM70 °FMostly cloudy.8 mph53%29.98 "Hg10 mi
Weather by CustomWeather, © 2014

See weather overviewHow to use our weather pages